Back to catalog

GLOBALSTAR M069

AliveCommunicationsLEO
NORAD 31573·PAYLOAD·🇺🇸 United States

Launched May 29, 2007 from Baikonur Cosmodrome

Loading…

Next Passes (next 24 hours)

TLE

FreshSource: Space-Track

Epoch: Sep 14, 2026, 07:34 UTC

1 31573U 07020C   26257.31548356 -.00000065  00000-0  25626-3 0  9991
2 31573  52.0064 359.8564 0001377 345.9193  46.8223 12.23474681889716

Track GLOBALSTAR M069 in real time with AllMySat

Download on the App Store